Weather History for Hoquiam, WA

Change the Weather History Date:

Thursday, February 21, 2013

  Actual Average Record
Temperature  
Mean Temperature 42 °F 44 °F  
Max Temperature 46 °F 50 °F 64 °F (1970)
Min Temperature 39 °F 38 °F 28 °F (1955)
Degree Days  
Heating Degree Days 22 21  
Month to date heating degree days 451  
Cooling Degree Days 0 0  
Month to date cooling degree days 0  
Year to date cooling degree days 0  
Moisture  
Dew Point 41 °F    
Average Humidity 89    
Maximum Humidity 100    
Minimum Humidity 76    
Precipitation  
Precipitation 0.38 in 0.23 in 1.72 in (2012)
Month to date precipitation 5.51  
Year to date precipitation 15.84  
Sea Level Pressure  
Sea Level Pressure 30.07 in    
Wind  
Wind Speed 8 mph (SW)    
Max Wind Speed 21 mph    
Max Gust Speed 32 mph    
Visibility 8 miles    
Events Rain    
T = Trace of Precipitation, MM = Missing Value Source: NWS Daily Summary

Daily Weather History Graph

Daily Weather History Graph

Search for Another Location

Airport:

Trip Planner

Search our weather history database for the weather conditions in past years. The results will help you decide how hot, cold, wet, or windy it might be!

Date:

Astronomy

Feb. 21, 2013 Rise Set
Actual Time 7:09 AM PST 5:49 PM PST
Civil Twilight 6:38 AM PST 6:20 PM PST
Nautical Twilight 6:03 AM PST 6:56 PM PST
Astronomical Twilight 5:28 AM PST 7:31 PM PST
Moon 2:00 PM PST (2/21) 4:28 AM PST (2/21)
Length of Visible Light 11h 42m
Length of Day
10h 40m
Waxing Gibbous, 84% of the Moon is Illuminated
Feb 21
Waxing Gibbous
Feb 25
Full
Mar 4
Last Quarter
Mar 11
New
Mar 19
First Quarter

Hourly Weather History & Observations

Time (PST) Temp. Windchill Dew Point Humidity Pressure Visibility Wind Dir Wind Speed Gust Speed Precip Events Conditions
12:53 AM 39.9 °F - 39.0 °F 97% 30.06 in 10.0 mi Calm Calm - N/A   Overcast
1:11 AM 39.2 °F 37.0 °F 37.4 °F 93% 30.06 in 10.0 mi West 3.5 mph - N/A   Overcast
1:23 AM 39.2 °F - 39.2 °F 100% 30.05 in 10.0 mi Calm Calm - N/A   Mostly Cloudy
1:37 AM 39.2 °F 37.0 °F 37.4 °F 93% 30.06 in 10.0 mi WSW 3.5 mph - N/A   Mostly Cloudy
1:48 AM 39.2 °F 35.9 °F 39.2 °F 100% 30.07 in 10.0 mi WSW 4.6 mph - N/A   Mostly Cloudy
1:53 AM 41.0 °F 38.0 °F 39.0 °F 93% 30.08 in 10.0 mi WSW 4.6 mph - N/A   Overcast
2:03 AM 41.0 °F 37.1 °F 39.2 °F 93% 30.07 in 9.0 mi WSW 5.8 mph - 0.00 in Rain Light Rain
2:27 AM 41.0 °F 39.0 °F 39.2 °F 93% 30.07 in 7.0 mi West 3.5 mph - 0.01 in Rain Light Rain
2:48 AM 42.8 °F 39.3 °F 41.0 °F 93% 30.06 in 10.0 mi SSW 5.8 mph - 0.01 in   Overcast
2:53 AM 42.1 °F 38.4 °F 41.0 °F 96% 30.07 in 10.0 mi SSW 5.8 mph - 0.01 in   Overcast
3:11 AM 42.8 °F 38.6 °F 41.0 °F 93% 30.07 in 10.0 mi SSW 6.9 mph - N/A   Overcast
3:53 AM 43.0 °F 36.4 °F 41.0 °F 93% 30.08 in 10.0 mi SSW 12.7 mph - N/A   Overcast
4:53 AM 43.0 °F 36.4 °F 37.0 °F 80% 30.09 in 10.0 mi SW 12.7 mph - 0.00 in Rain Light Rain
5:53 AM 44.1 °F 37.7 °F 37.0 °F 76% 30.09 in 10.0 mi WSW 12.7 mph - 0.00 in   Overcast
6:31 AM 42.8 °F 38.6 °F 37.4 °F 81% 30.09 in 7.0 mi WSW 6.9 mph - 0.02 in Rain Light Rain
6:53 AM 43.0 °F 35.1 °F 37.9 °F 82% 30.09 in 10.0 mi SSW 17.3 mph 20.7 mph 0.03 in Rain Light Rain
7:04 AM 42.8 °F 35.8 °F 37.4 °F 81% 30.08 in 10.0 mi SW 13.8 mph - N/A Rain Light Rain
7:29 AM 42.8 °F 35.1 °F 39.2 °F 87% 30.08 in 6.0 mi SSW 16.1 mph - 0.02 in Rain Light Rain
7:53 AM 42.1 °F 33.1 °F 37.9 °F 85% 30.10 in 4.0 mi SW 20.7 mph 32.2 mph 0.06 in Rain Light Rain
8:53 AM 41.0 °F 33.9 °F 37.0 °F 86% 30.09 in 9.0 mi SSW 12.7 mph - 0.04 in Rain Light Rain
9:53 AM 41.0 °F 34.7 °F 37.9 °F 89% 30.09 in 10.0 mi SSE 10.4 mph - 0.00 in   Overcast
10:27 AM 42.8 °F 36.6 °F 39.2 °F 87% 30.07 in 8.0 mi South 11.5 mph - 0.00 in Rain Light Rain
10:53 AM 43.0 °F 35.7 °F 39.0 °F 86% 30.07 in 10.0 mi South 15.0 mph - 0.01 in   Overcast
11:53 AM 43.0 °F 35.7 °F 41.0 °F 93% 30.07 in 3.0 mi South 15.0 mph - 0.05 in Rain Light Rain
12:20 PM 42.8 °F 35.1 °F 41.0 °F 93% 30.04 in 4.0 mi South 16.1 mph 26.5 mph 0.07 in Rain Light Rain
12:29 PM 44.6 °F 37.2 °F 42.8 °F 93% 30.04 in 3.0 mi SSW 17.3 mph 27.6 mph 0.10 in Rain Rain
12:31 PM 44.6 °F 37.4 °F 42.8 °F 93% 30.04 in 2.5 mi South 16.1 mph - 0.11 in Rain Rain
12:41 PM 44.6 °F 38.1 °F 42.8 °F 93% 30.04 in 3.0 mi South 13.8 mph - 0.13 in Rain Light Rain
12:53 PM 45.0 °F 38.2 °F 43.0 °F 93% 30.04 in 3.0 mi WSW 15.0 mph 29.9 mph 0.14 in Rain Light Rain
12:58 PM 44.6 °F 38.8 °F 42.8 °F 93% 30.03 in 4.0 mi West 11.5 mph 21.9 mph 0.01 in Rain Light Rain
1:08 PM 46.4 °F 41.1 °F 42.8 °F 87% 30.03 in 9.0 mi WSW 11.5 mph - 0.01 in Rain Light Rain
1:15 PM 46.4 °F 41.1 °F 44.6 °F 93% 30.03 in 10.0 mi WSW 11.5 mph - 0.01 in   Overcast
1:53 PM 46.9 °F - 44.1 °F 90% 30.04 in 10.0 mi SW 10.4 mph - 0.01 in   Mostly Cloudy
2:35 PM 46.4 °F 39.2 °F 44.6 °F 93% 30.03 in 9.0 mi SW 18.4 mph - 0.02 in   Overcast
2:53 PM 46.0 °F 41.4 °F 42.1 °F 86% 30.04 in 10.0 mi West 9.2 mph - 0.02 in   Overcast
3:35 PM 46.4 °F 41.5 °F 44.6 °F 93% 30.04 in 10.0 mi WSW 10.4 mph - 0.00 in   Overcast
3:43 PM 46.4 °F 41.5 °F 44.6 °F 93% 30.04 in 9.0 mi WSW 10.4 mph - 0.00 in   Overcast
3:53 PM 46.9 °F - 43.0 °F 86% 30.06 in 8.0 mi WSW 11.5 mph - 0.00 in Rain Light Rain
4:08 PM 46.4 °F 40.4 °F 42.8 °F 87% 30.05 in 9.0 mi West 13.8 mph - 0.00 in   Overcast
4:53 PM 46.0 °F 40.2 °F 39.9 °F 79% 30.06 in 10.0 mi West 12.7 mph - 0.00 in   Overcast
5:53 PM 45.0 °F 40.6 °F 39.9 °F 82% 30.09 in 10.0 mi WSW 8.1 mph - 0.00 in   Overcast
6:53 PM 44.1 °F 39.5 °F 39.9 °F 85% 30.09 in 10.0 mi SW 8.1 mph - N/A   Overcast
7:53 PM 44.1 °F 38.6 °F 39.9 °F 85% 30.10 in 10.0 mi SW 10.4 mph - N/A   Overcast
8:53 PM 44.1 °F 39.5 °F 41.0 °F 89% 30.11 in 9.0 mi SSW 8.1 mph - N/A   Overcast
9:25 PM 44.6 °F 39.7 °F 42.8 °F 93% 30.11 in 10.0 mi SW 9.2 mph - 0.01 in   Overcast
9:39 PM 44.6 °F 39.2 °F 41.0 °F 87% 30.10 in 9.0 mi SW 10.4 mph - 0.01 in   Overcast
9:53 PM 44.1 °F 39.0 °F 41.0 °F 89% 30.10 in 9.0 mi SW 9.2 mph - 0.01 in   Overcast
10:15 PM 44.6 °F 40.2 °F 41.0 °F 87% 30.09 in 10.0 mi South 8.1 mph - N/A   Overcast
11:53 PM 44.1 °F 40.1 °F 41.0 °F 89% 30.10 in 8.0 mi South 6.9 mph - N/A   Overcast